Regional Weather Roundup
Issued by NWS Little Rock, AR

Home | Current Version | Previous Version | Text Only | Print | Product List | Glossary Off
Versions: 1 2 3 4 5 6 7 8 9 10 11 12 13 14 15 16 17 18 19 20 21 22 23 24 25 26 27 28 29 30 31 32 33 34 35 36 37 38 39 40 41 42 43 44 45 46 47 48 49 50

000
ASUS44 KLZK 251805
RWRLZK

WEATHER ROUNDUP FOR ARKANSAS
NATIONAL WEATHER SERVICE LITTLE ROCK AR
100 PM CDT WED APR 25 2018

NOTE: "FAIR" INDICATES FEW OR NO CLOUDS BELOW 12,000 FEET WITH NO
SIGNIFICANT WEATHER AND/OR OBSTRUCTIONS TO VISIBILITY.

ARZ001-003-010-029-251900-
NORTHWEST ARKANSAS

CITY           SKY/WX    TMP DP  RH WIND       PRES   REMARKS
FAYETTEVILLE   LGT RAIN  54  52  93 E3        30.11F
6HR MIN TEMP:  47; 6HR MAX TEMP:  54; 6HR PCP:  0.22;

FORT SMITH     LGT RAIN  56  54  93 E6        30.12F FOG
6HR MIN TEMP:  53; 6HR MAX TEMP:  58; 6HR PCP:  0.23;

HARRISON       RAIN      52  52 100 SW5       30.12F FOG
6HR MIN TEMP:  52; 6HR MAX TEMP:  56; 6HR PCP:  0.22;

BENTONVILLE    LGT RAIN  54  51  90 E6        30.13F
6HR MIN TEMP:  52; 6HR MAX TEMP:  54; 6HR PCP:  0.20;

ROGERS         LGT RAIN  53  51  93 SE3       30.12F
6HR MIN TEMP:  52; 6HR MAX TEMP:  54; 6HR PCP:  0.26;

SILOAM SPGS    LGT RAIN  54  52  93 SE6       30.11F
6HR MIN TEMP:  52; 6HR MAX TEMP:  54; 6HR PCP:  0.25;

HIGHFILL       LGT RAIN  54  50  86 E5        30.11F
6HR MIN TEMP:  52; 6HR MAX TEMP:  54; 6HR PCP:  0.23;

SPRINGDALE     LGT RAIN  52  52 100 CALM      30.14F
$$

ARZ004-005-016-251900-
NORTH CENTRAL ARKANSAS

CITY           SKY/WX    TMP DP  RH WIND       PRES   REMARKS
BATESVILLE     CLOUDY    61  45  55 NW8       30.09R
6HR MIN TEMP:  53; 6HR MAX TEMP:  69; 6HR PCP: TRACE;

FLIPPIN        RAIN      54  52  93 SW6       30.13S
6HR MIN TEMP:  46; 6HR MAX TEMP:  58;

MTN HOME       LGT RAIN  53  53 100 NW5       30.11F FOG
6HR MIN TEMP:  50; 6HR MAX TEMP:  55; 6HR PCP:  0.12;

$$

ARZ040-041-251900-
WEST CENTRAL ARKANSAS

CITY           SKY/WX    TMP DP  RH WIND       PRES   REMARKS
MENA           CLOUDY    55  55 100 CALM      30.13R
MOUNT IDA      RAIN      54  53  97 CALM      30.07F FOG
6HR MIN TEMP:  47; 6HR MAX TEMP:  66; 6HR PCP:  0.09;

$$

ARZ009-017-025-026-028-251900-
NORTHEAST ARKANSAS

CITY           SKY/WX    TMP DP  RH WIND       PRES   REMARKS
CORNING        FAIR      68  55  64 SW7       30.02F
JONESBORO      FAIR      66  47  50 N12       30.05S
6HR MIN TEMP:  56; 6HR MAX TEMP:  71;

NEWPORT        CLOUDY    68  51  54 N12       30.05S
6HR MIN TEMP:  55; 6HR MAX TEMP:  71;

WALNUT RIDGE   FAIR      66  47  50 W6        30.04F
6HR MIN TEMP:  50; 6HR MAX TEMP:  68;

BLYTHEVILLE    PTSUNNY   68  53  58 NW7       30.03R
6HR MIN TEMP:  52; 6HR MAX TEMP:  71;

NW BLYTHEVILLE CLOUDY    68  52  56 NW3       30.02S
$$

ARZ022-023-033-042-044-251900-
CENTRAL ARKANSAS

CITY           SKY/WX    TMP DP  RH WIND       PRES   REMARKS
LITTLE ROCK    CLOUDY    68  58  70 NW14      30.07R
6HR MIN TEMP:  53; 6HR MAX TEMP:  73;

N LITTLE ROCK    N/A     65  58  80 NW7       30.04S
6HR MIN TEMP:  57; 6HR MAX TEMP:  69;

JACKSONVILLE   CLOUDY    68  58  69 W7        30.06R
6HR MIN TEMP:  50; 6HR MAX TEMP:  72;

CONWAY         MOCLDY    59  54  82 W12G21    30.10R HAZE
SEARCY         CLOUDY    71  59  65 W6        30.06R
6HR MIN TEMP:  51; 6HR MAX TEMP:  72;

HOT SPRINGS    LGT RAIN  59  54  83 NW9G18    30.08S
6HR MIN TEMP:  52; 6HR MAX TEMP:  70; 6HR PCP: TRACE;

RUSSELLVILLE   LGT RAIN  54  53  97 NW7       30.13S FOG
6HR MIN TEMP:  48; 6HR MAX TEMP:  62; 6HR PCP:  0.09;

CLINTON        LGT RAIN  57  52  82 NW10G17   30.11R
$$

ARZ036-251900-
EAST ARKANSAS

CITY           SKY/WX    TMP DP  RH WIND       PRES   REMARKS
WEST MEMPHIS   FAIR      72  60  66 VRB3      30.01F
6HR MIN TEMP:  51; 6HR MAX TEMP:  74;

$$

ARZ050-053-066-070-073-251900-
SOUTHWEST ARKANSAS

CITY           SKY/WX    TMP DP  RH WIND       PRES   REMARKS
ARKADELPHIA    CLOUDY    69  60  73 N7        30.05F
6HR MIN TEMP:  54; 6HR MAX TEMP:  71;

CAMDEN         CLOUDY    72  55  56 CALM      30.03F
TEXARKANA      CLOUDY    66  57  72 NW8       30.05F
6HR MIN TEMP:  54; 6HR MAX TEMP:  67;

EL DORADO      CLOUDY    74  61  63 S5        30.03F
6HR MIN TEMP:  56; 6HR MAX TEMP:  74;

DE QUEEN       CLOUDY    60  53  77 N7G16     30.06F
6HR MIN TEMP:  51; 6HR MAX TEMP:  66; 6HR PCP: TRACE;

$$

ARZ056-057-069-251900-
SOUTHEAST ARKANSAS

CITY           SKY/WX    TMP DP  RH WIND       PRES   REMARKS
PINE BLUFF     FAIR      75  47  36 CALM      30.04F
6HR MIN TEMP:  56; 6HR MAX TEMP:  77;

STUTTGART      PTSUNNY   73  56  54 W9        30.05F
6HR MIN TEMP:  56; 6HR MAX TEMP:  74;

MONTICELLO     FAIR      77  49  37 MISG      30.03F
6HR MIN TEMP:  53; 6HR MAX TEMP:  77;


$$






USA.gov is the U.S. government's official web portal to all federal, state and local government web resources and services.